Regional Weather Roundup
Issued by NWS

Home | Current Version | Previous Version | Text Only | Print | Product List | Glossary On
Versions: 1 2 3 4 5 6 7 8 9 10 11 12 13 14 15 16 17 18 19 20 21 22 23 24 25 26 27 28 29 30 31 32 33 34 35 36 37 38 39 40 41 42 43 44 45 46 47 48 49 50
649
ASUS43 KLSX 091010
RWRMO

WEATHER SUMMARY FOR MISSOURI
NATIONAL WEATHER SERVICE SPRINGFIELD MO
400 AM CST FRI DEC 09 2016

NOTE: "FAIR" INDICATES FEW OR NO CLOUDS BELOW 12,000 FEET WITH NO
       SIGNIFICANT WEATHER AND/OR OBSTRUCTIONS TO VISIBILITY.
       CURRENT SKY AND/OR WEATHER CONDITIONS ARE NOT AVAILABLE FOR
       CHILLICOTHE AND FARMINGTON.

MOZ001>031-035>038-043-044-053-054-091100-
...NORTHERN AND WESTERN MISSOURI...

CITY           SKY/WX    TMP DP  RH WIND       PRES   REMARKS
KANSAS CTY INT CLEAR     13   6  74 NW6       30.65R WCI   4
KANSAS C DTWN  CLEAR     17  10  74 NW6       30.68R WCI   9
LEE`S SUMMIT   CLEAR     14   9  80 NW6       30.66R WCI   5
ST JOSEPH      CLEAR     14   8  77 W3        30.67S
CHILLICOTHE      N/A     14   7  73 CALM      30.66R
KIRKSVILLE     CLEAR     11   7  84 NW5       30.61R WCI   3

$$
MOZ066>068-077>081-088>096-101>105-091100-
...SOUTHWEST MISSOURI...

CITY           SKY/WX    TMP DP  RH WIND       PRES   REMARKS
SPRINGFIELD    CLEAR     16  10  77 CALM      30.62R
JOPLIN         CLEAR     13  10  88 CALM      30.66F
BRANSON        CLEAR     16  10  79 CALM      30.62F

$$
MOZ032>034-039>042-045>050-055>058-069>072-091100-
...CENTRAL MISSOURI...

CITY           SKY/WX    TMP DP  RH WIND       PRES   REMARKS
COLUMBIA       CLEAR     15   9  76 W7        30.62R WCI   5
JEFFERSON CITY CLEAR     15  11  83 NW3       30.65S
ROLLA          CLEAR     14  10  84 W8        30.58S WCI   3
SEDALIA        CLEAR     15   9  76 NW6       30.65S WCI   6
WHITEMAN AFB   CLEAR     16  11  80 NW6       30.64R WCI   7
WARRENSBURG    CLEAR     14  10  85 W3        30.66S
OSAGE BEACH    CLEAR     16  10  77 W3        30.65R

$$
MOZ051-052-059>065-091100-
...EAST CENTRAL MISSOURI...

CITY           SKY/WX    TMP DP  RH WIND       PRES   REMARKS
ST LOUIS INTL  CLEAR     19  10  68 W7        30.60S WCI  10
SPIRIT OF STL  PTCLDY    18  11  74 W3        30.62S
ST CHARLES     CLEAR     20  13  74 W8        30.61S WCI  10

$$
MOZ072>076-082>087-097>100-106>115-091100-
...SOUTH CENTRAL AND SOUTHEAST MISSOURI...

CITY           SKY/WX    TMP DP  RH WIND       PRES   REMARKS
CAPE GIRARDEAU CLEAR     21  12  68 NW7       30.62S WCI  12
FARMINGTON     CLEAR     16  11  80 NW6       30.58F WCI   7
POPLAR BLUFF   CLEAR     20  14  77 W5        30.64S WCI  13
WEST PLAINS    CLEAR     15  10  80 W5        30.60S WCI   8

$$




USA.gov is the U.S. government's official web portal to all federal, state and local government web resources and services.